Find Starlink 34306

NORAD ID: 64259 Int'l Des: 2025-120 Owner: SPXS Country: US Constellation: starlink operational
LEOCIRCULAR

現在のビュー

3D地球を読み込み中...

About Starlink 34306

Starlink 34306 (NORAD 64259) is a starlink constellation satellite (v2 mini) launched Jun 4, 2025 by SPXS of US. It operates in LEO, CIRCULAR orbit with a mass of 575.00 kg.

次回通過

Passes for default location (London). Set your location on the main map for personalized predictions.

高度履歴

Loading altitude history...

軌道要素

1 64259U 25120D 26263.54556917 .00015357 00000-0 46475-3 0 9997
2 64259 53.1584 285.6307 0001063 82.1284 277.9839 15.34397819 73780
Epoch: Sep 20, 2026 • Age: 15 hours

現在のステータス

高度 465.1 km
遠地点 / 近地点 N/A
速度 7.63 km/s
衛星直下点 -7.84°S, 48.78°E
打ち上げ日 Jun 4, 2025
運用期間 1.2 years
タイプ internet

技術仕様

分類 Payload
質量 575.00 kg
乾燥質量 530.00 kg
長さ 0.30 m
スパン 29.00 m
形状 ? Box + pan
製造者 SPXS
バスタイプ Starlink V2MO
フェーズステータス In Orbit
所有者/国 SPXS/US

Most Searched